Tracking 17631 objects as of 3-May-2016
HD Live streaming from Space Station
objects crossing your sky now

MINOTAUR R/B

Track MINOTAUR R/B now!
10-day predictions


NORAD ID: 26066
Int'l Code: 2000-004F
Perigee: 749.9 km
Apogee: 797.6 km
Inclination: 100.2 °
Period: 100.2 minutes
Semi major axis: 7144 km
RCS: 1.5369 m2 (large)
Launch date: January 27, 2000
Source: United States (US)
Launch site: AIR FORCE WESTERN TEST RANGE (AFWTR)

Note: This is a ROCKET BODY
Your satellite tracking list
Your tracking list is empty





NASA's NSSDC Master Catalog

Two Line Element Set (TLE):
1 26066U 00004F   16122.87227693 +.00000037 +00000-0 +32050-4 0  9994
2 26066 100.1961 056.5210 0033385 007.4619 033.4653 14.37535482852762
Source of the keplerian elements: AFSPC

N2YO: 454